Location: Austin
(30.3000°N, 97.7500°W)
Time: 06:18:00
(UTC-06:00)

ARIANE 5 R/B - Pass Details

Date: 05 February 2026
Orbit: 746 x 793 km, 98.8° (Epoch: 15 February)

Event Time Altitude Azimuth Distance (km) Brightness Sun altitude
Rises 06:32:46 0° 24° (NNE) 3,196 5.9 -10.5°
Reaches altitude 10° 06:35:14 10° 32° (NNE) 2,265 5.2 -10.0°
Maximum altitude 06:39:48 36° 99° (E) 1,166 4.3 -9.0°
Drops below altitude 10° 06:44:20 10° 166° (SSE) 2,252 5.3 -8.0°
Sets 06:46:46 0° 174° (S) 3,175 6.0 -7.5°
